Weather History for Roswell, NM

Change the Weather History Date:

Thursday, February 28, 2013

  Actual Average Record
Temperature  
Mean Temperature 39 °F 49 °F  
Max Temperature 58 °F 64 °F 87 °F (2006)
Min Temperature 19 °F 34 °F 5 °F (1922)
Degree Days  
Heating Degree Days 26 16  
Month to date heating degree days 541 541  
Since 1 July heating degree days 2454 2707  
Cooling Degree Days 0 0  
Month to date cooling degree days 0 0  
Year to date cooling degree days 0 0  
Moisture  
Dew Point 10 °F    
Average Humidity 37    
Maximum Humidity 62    
Minimum Humidity 11    
Precipitation  
Precipitation 0.00 in 0.02 in 0.65 in (1938)
Month to date precipitation 0.03 0.42  
Year to date precipitation 0.44 0.80  
Sea Level Pressure  
Sea Level Pressure 30.22 in    
Wind  
Wind Speed 5 mph (West)    
Max Wind Speed 21 mph    
Max Gust Speed 28 mph    
Visibility 10 miles    
Events      
T = Trace of Precipitation, MM = Missing Value Source: NWS Daily Summary

Daily Weather History Graph

Daily Weather History Graph

Search for Another Location

Airport:

Trip Planner

Search our weather history database for the weather conditions in past years. The results will help you decide how hot, cold, wet, or windy it might be!

Date:

Astronomy

Feb. 28, 2013 Rise Set
Actual Time 6:27 AM MST 5:54 PM MST
Civil Twilight 6:02 AM MST 6:19 PM MST
Nautical Twilight 5:33 AM MST 6:48 PM MST
Astronomical Twilight 5:04 AM MST 7:16 PM MST
Moon 9:10 PM MST (2/28) 7:50 AM MST (2/28)
Length of Visible Light 12h 17m
Length of Day
11h 27m
Waning Gibbous, 90% of the Moon is Illuminated
Feb 28
Waning Gibbous
Mar 4
Last Quarter
Mar 11
New
Mar 19
First Quarter
Mar 27
Full

Hourly Weather History & Observations

Time (MST) Temp. Windchill Dew Point Humidity Pressure Visibility Wind Dir Wind Speed Gust Speed Precip Events Conditions
12:51 AM 30.9 °F 24.3 °F 15.1 °F 52% 30.25 in 10.0 mi WSW 6.9 mph - N/A   Clear
1:51 AM 30.9 °F 23.5 °F 15.1 °F 52% 30.23 in 10.0 mi WSW 8.1 mph - N/A   Clear
2:51 AM 26.1 °F 19.4 °F 12.9 °F 58% 30.24 in 10.0 mi WSW 5.8 mph - N/A   Clear
3:51 AM 24.1 °F - 10.9 °F 57% 30.22 in 10.0 mi Calm Calm - N/A   Clear
4:51 AM 23.0 °F - 10.9 °F 60% 30.23 in 10.0 mi Calm Calm - N/A   Clear
5:51 AM 25.0 °F - 12.9 °F 60% 30.26 in 10.0 mi Calm Calm - N/A   Clear
7:51 AM 30.9 °F - 15.1 °F 52% 30.30 in 10.0 mi Calm Calm - N/A   Clear
8:51 AM 39.0 °F - 16.0 °F 39% 30.30 in 10.0 mi Calm Calm - N/A   Clear
9:51 AM 43.0 °F 41.3 °F 17.1 °F 35% 30.29 in 10.0 mi Variable 3.5 mph - N/A   Clear
10:51 AM 48.9 °F - 16.0 °F 27% 30.26 in 10.0 mi SSE 6.9 mph - N/A   Clear
11:51 AM 53.1 °F - 10.9 °F 19% 30.22 in 10.0 mi Variable 6.9 mph - N/A   Clear
12:39 PM 55.4 °F - 5.0 °F 13% 30.22 in 10.0 mi North 10.4 mph 24.2 mph N/A   Clear
12:51 PM 57.0 °F - 3.0 °F 11% 30.18 in 10.0 mi NNW 10.4 mph 20.7 mph N/A   Clear
1:51 PM 57.0 °F - 9.0 °F 15% 30.17 in 10.0 mi North 13.8 mph 24.2 mph N/A   Clear
2:51 PM 57.0 °F - 9.0 °F 15% 30.17 in 10.0 mi NNW 11.5 mph 19.6 mph N/A   Clear
3:51 PM 57.0 °F - 6.1 °F 13% 30.16 in 10.0 mi NW 13.8 mph 18.4 mph N/A   Clear
4:51 PM 55.9 °F - 6.1 °F 14% 30.17 in 10.0 mi NNW 9.2 mph - N/A   Clear
5:51 PM 50.0 °F - 7.0 °F 18% 30.19 in 10.0 mi NE 8.1 mph - N/A   Clear
6:51 PM 44.1 °F 42.5 °F 6.1 °F 21% 30.23 in 10.0 mi Variable 3.5 mph - N/A   Clear
7:51 PM 39.9 °F 37.8 °F 6.1 °F 25% 30.22 in 10.0 mi South 3.5 mph - N/A   Clear
8:51 PM 35.1 °F 31.0 °F 3.9 °F 27% 30.20 in 10.0 mi SSW 4.6 mph - N/A   Clear
9:51 PM 35.1 °F 29.3 °F 3.9 °F 27% 30.19 in 10.0 mi WSW 6.9 mph - N/A   Clear
10:51 PM 36.0 °F 32.1 °F 6.1 °F 29% 30.17 in 10.0 mi West 4.6 mph - N/A   Clear
11:51 PM 33.1 °F - 6.1 °F 32% 30.17 in 10.0 mi Calm Calm - N/A   Clear